Showing default

TIME FLIES, 64564

Orbit data source: Space-Track

TIME FLIES, 64564 is a payload satellite owned by TrustPoint (US) in SSO that was launched on Mon, 23 Jun 2025 UTC via an FALCON 9 launch vehicle from the Air Force Western Test Range (AFWTR). Payload-class satellites include a variety of spacecraft equipped with specific instruments for various scientific and technological missions. These include communications satellites like Starlink; space stations such as the ISS; scientific satellites like the Hubble; Earth observation satellites from companies like Planet Labs, Umbra, and HawkEye 360; GPS; miniature CubeSats for education and research; and military/defense satellites.

Loading next visibility...
Identifier
64564, 2025-135AN
Orbit
SSO
Country
Flag of USUS
Related business
Manufacturer
TrustPoint
Mission
Operational Commercial Navigation
Bus & Motor
CUBESAT 3U?, Unknown motor
Mass
4 kg wet, 4 kg dry
Launch date (UTC)
2025-06-23 (7 months ago)
Launch vehicle
FALCON 9
Launch site
Air Force Western Test Range (AFWTR)
Object type
Payload
Rocket body
Debris
Shape & HBR
Box, 0.1 m
Radar Cross Section
0.035 m², Medium (>0.1 m² and < 1m²)

Expand to show TLE details & history
Last TLE update: 13 hours ago

TLE from 13 hours ago
0 TIME FLIES
1 64564U 25135AN  26035.81818938  .00005289  00000-0  50293-3 0  9999
2 64564  97.7580 151.7326 0002112  30.8818 329.2525 14.93873934 34132
Epoch: 2026-02-04T19:38Z
TLE epoch observation values (Epoch: 2026-02-04T19:38:11.562Z)
Latitude
-0.0001°
Longitude
82.20512°
Altitude
587.651 km
Speed
7.567 km/s
True Right ascension
10h 06m 55s
True Declination
0° 00' 00"
Sunlit
Object was in full shadow at epoch
Visualization orbit readout
Latitude
Unknown
Longitude
Unknown
Altitude
Unknown
Speed
Unknown
Apparent Right ascension
Unknown
Apparent Declination
Unknown
Sunlit
N/A
Visualization observer readout
Local Sidereal Time
10:49:41
Azimuth
Unknown
Elevation
Unknown
Doppler factor
Unknown
Orbital elements
Apogee altitude
584.356 km
Perigee altitude
581.416 km
Semi-major axis
6,961.023 km
Eccentricity
0.00021
Inclination
97.758°
RAAN
151.7326°
Arg. of periapsis
30.8818°
True anomaly
329.24012°
Mean anomaly
329.2525°
Eccentric anomaly
329.24631°
Mean motion
3.73709 °/min
Orbital period
96.33 mins
BSTAR
0.00050293
Loading maneuver chart data...
Computing Atmospheric mass density...
Loading historical data...
Loading historical data...
Loading historical data...
Loading historical data...
Loading historical data...
Loading historical data...
Loading historical data...

Documentation

Showing up to 5 results
|